Location: De Lemmer
(52.8462°N, 5.7091°E)
Time: 11:28:12
(UTC+00:00)

Cosmos 2251 Rocket - Pass Details

Date: 18 September 2020
Orbit: 765 x 792 km, 74.0° (Epoch: 30 October)

Event Time Altitude Azimuth Distance (km) Brightness Sun altitude
Rises 20:04:20 0° 336° (NNW) 3,304 7.7 -20.8°
Reaches altitude 10° 20:06:58 10° 346° (NNW) 2,370 6.7 -21.1°
Maximum altitude 20:11:52 34° 51° (NE) 1,285 4.5 -21.7°
Enters shadow 20:12:46 32° 71° (ENE) 1,334 4.4 -21.8°
